カタログに戻る

FENGYUN 1C DEB

LostPO
NORAD 37412·DEBRIS·🇨🇳 China

打ち上げ May 10, 1999 から Taiyuan Satellite Launch Center

Loading…

次のパス (今後24時間)

TLE

古いSource: Space-Track

元期: Feb 5, 2023, 07:15 UTC

1 37412U 99025EGE 23036.30269517  .00012411  00000-0  40607-2 0  9997
2 37412  98.9906 220.6212 0019860 184.7430 175.3571 14.38509018474076

AllMySatでFENGYUN 1C DEBをリアルタイム追跡

Download on the App Store